Location: *
(13.0000°N, 151.6000°E)
Time: 15:32:18
(UTC+00:00)

Cosmos 2026 Rocket - Pass Details

Date: 01 April 2020
Orbit: 940 x 1000 km, 82.9° (Epoch: 03 June)

Event Time Altitude Azimuth Distance (km) Brightness Sun altitude
Rises 18:40:08 0° 182° (S) 3,668 6.9 -17.5°
Reaches altitude 10° 18:42:39 10° 182° (S) 2,713 6.2 -16.9°
Maximum altitude 18:48:52 86° 94° (E) 967 4.0 -15.4°
Drops below altitude 10° 18:55:00 10° 5° (N) 2,673 6.5 -14.0°
Sets 18:57:28 0° 5° (N) 3,612 7.2 -13.4°
